Regional Weather Roundup
Issued by NWS

Home | Current Version | Previous Version | Text Only | Print | Product List | Glossary On
Versions: 1 2 3 4 5 6 7 8 9 10 11 12 13 14 15 16 17 18 19 20 21 22 23 24 25 26 27
000
ASUS45 KBOI 290510
RWRID

IDAHO REGIONAL WEATHER ROUNDUP
NATIONAL WEATHER SERVICE BOISE ID
1100 PM MDT SUN MAY 28 2017

NOTE: "FAIR" INDICATES FEW OR NO CLOUDS BELOW 12000 FEET
WITH NO SIGNIFICANT WEATHER AND/OR OBSTRUCTIONS TO VISIBILITY

IDZ012-014-290600-
SOUTHWEST IDAHO


CITY           SKY/WX    TMP DP  RH WIND       PRES   REMARKS
BOISE          CLEAR     72  40  31 NE3       30.08S
CALDWELL       CLEAR     63  45  51 NE3       30.07S
MOUNTAIN HOME  CLEAR     65  38  38 CALM      30.08S
$$

IDZ016-017-290600-
SOUTHCENTRAL IDAHO


CITY           SKY/WX    TMP DP  RH WIND       PRES   REMARKS
BURLEY         CLEAR     58  49  72 CALM      30.15S
JEROME         CLEAR     61  35  37 E3        30.16R
TWIN FALLS     CLEAR     51  46  83 SE9       30.16S
$$

IDZ019>023-290600-
SOUTHEAST IDAHO


CITY           SKY/WX    TMP DP  RH WIND       PRES   REMARKS
IDAHO FALLS    CLEAR     57  45  64 CALM      30.21R
POCATELLO      CLEAR     55  39  54 E6        30.19R
REXBURG        CLEAR     58  40  51 E7        30.21S
$$

IDZ006-010-011-018-031-032-290600-
CENTRAL IDAHO MOUNTAINS


CITY           SKY/WX    TMP DP  RH WIND       PRES   REMARKS
MCCALL         CLEAR     58  35  42 N6        30.20R
HAILEY         CLEAR     52  45  76 NW6       30.25R
STANLEY          N/A     43  32  65 S5        30.29S
SALMON         CLEAR     59  39  47 SE6       30.14R
CHALLIS        CLEAR     57  37  47 NW8       30.19R
$$

IDZ002-004-006-007-026-290600-
NORTHERN IDAHO


CITY           SKY/WX    TMP DP  RH WIND       PRES   REMARKS
LEWISTON       CLEAR     69  51  52 S7        30.02R
LOWELL           N/A     59  50  72 CALM      30.08R
COEUR D`ALENE  CLEAR     67  51  56 CALM      30.08S
MULLAN PASS    CLEAR     61  33  35 CALM      30.27S
$$




USA.gov is the U.S. government's official web portal to all federal, state and local government web resources and services.